Home   Weather   Caracas   Past weeks
Flag for Venezuela

Past Weather in Caracas, Venezuela — Yesterday and Last 2 Weeks

Now
82 °F

Broken clouds.


Feels Like: 87 °F
Forecast: 79 / 65 °F
Wind: 7 mph from North

Location: Caracas / Maiquetia Aerop. Intl. Simon Bolivar

Current Time: Oct 20, 2019 at 1:39:31 pm

Latest Report: Oct 20, 2019 at 1:00 pm


Visibility: N/A

Pressure: 29.89 "Hg (27.06 "Hg at 875m altitude)

Humidity: 70%

Dew Point: 72 °F

Location of CaracasLocation

Past Weather in Caracas — Graph

°F

Caracas Temperature Yesterday

Maximum temperature yesterday: 86 °F (at 1:00 pm)
Minimum temperature yesterday: 75 °F (at 2:00 am)
Average temperature yesterday: 79 °F

High & Low Weather Summary for the Past Weeks

 TemperatureHumidityPressure
High91 °F (Oct 7, 4:00 pm)94% (Oct 6, 3:00 am)29.95 "Hg (Oct 6, 3:00 am)
Low75 °F (Oct 6, 3:00 am)52% (Oct 5, 1:59 pm)29.77 "Hg (Oct 8, 4:00 pm)
Average81 °F79%29.87 "Hg
* Reported Oct 5 12:00 pm — Oct 20 12:00 pm, Caracas. Weather by CustomWeather, © 2019

Note: Actual official high and low records may vary slightly from our data, if they occured in-between our weather recording intervals... More about our weather records

Advertising

Caracas Weather History for the Previous 24 Hours

Scroll right to see more
 ConditionsComfort  
Time TempWeatherWind HumidityBarometerVisibility
12:00 pm
Sun, Oct 20
82 °FPassing clouds.5 mph66%29.92 "HgN/A
11:00 am82 °FPassing clouds.2 mph66%29.92 "HgN/A
10:00 am81 °FPassing clouds.No wind74%29.92 "HgN/A
9:00 am79 °FPassing clouds.1 mph84%29.89 "HgN/A
8:00 am79 °FPassing clouds.3 mph89%29.89 "HgN/A
6:00 am77 °FScattered clouds.2 mph89%29.86 "HgN/A
5:00 am77 °FPassing clouds.No wind83%29.86 "HgN/A
4:00 am75 °FPassing clouds.No wind89%29.80 "HgN/A
3:00 am75 °FPassing clouds.No wind94%29.80 "HgN/A
2:00 am77 °FPassing clouds.No wind89%29.80 "HgN/A
1:00 am77 °FPassing clouds.No wind94%29.83 "HgN/A
12:00 am77 °FPassing clouds.5 mph74%29.83 "HgN/A
11:00 pm
Sat, Oct 19
77 °FPassing clouds.7 mph79%29.83 "HgN/A
10:00 pm77 °FPassing clouds.5 mph83%29.86 "HgN/A
9:00 pm79 °FPassing clouds.No wind79%29.86 "HgN/A
8:00 pm79 °FPassing clouds.2 mph84%29.86 "HgN/A
7:00 pm79 °FPassing clouds.3 mph84%29.86 "HgN/A
6:00 pm81 °FPartly cloudy.5 mph79%29.86 "HgN/A
5:00 pm81 °FBroken clouds.6 mph74%29.86 "HgN/A
4:00 pm79 °FPartly sunny.8 mph89%29.86 "HgN/A
3:00 pm81 °FBroken clouds.7 mph84%29.83 "HgN/A
2:00 pm82 °FBroken clouds.5 mph70%29.83 "HgN/A
1:00 pm86 °FPartly sunny.6 mph89%29.86 "HgN/A
Weather by CustomWeather, © 2019

See weather overview